Location: Newark
(42.1667°N, 14.5667°E)
Time: 19:09:35
(UTC+00:00)

Envisat - Pass Details

Date: 27 January 2020
Orbit: 764 x 766 km, 98.1° (Epoch: 19 February)

Event Time Altitude Azimuth Distance (km) Brightness Sun altitude
Rises 04:57:54 0° 23° (NNE) 3,240 6.4 -15.3°
Reaches altitude 10° 05:00:29 10° 33° (NNE) 2,309 5.8 -14.9°
Maximum altitude 05:04:58 31° 96° (E) 1,320 5.0 -14.0°
Drops below altitude 10° 05:09:26 10° 158° (SSE) 2,293 6.0 -13.2°
Sets 05:11:58 0° 168° (SSE) 3,215 6.6 -12.8°
